Powrót do katalogu

DELTA 1 DEB

AktywnyLEO
NORAD 28443·DEBRIS·🇺🇸 United States

Wystrzelony Feb 8, 1962 z Cape Canaveral Space Force Station

Loading…

Następne Przeloty (najbliższe 24 godziny)

TLE

ŚwieżeSource: Space-Track

Epoka: Sep 14, 2026, 10:07 UTC

1 28443U 62002E   26257.42169079  .00000256  00000-0  91323-4 0  9996
2 28443  48.2704  24.3366 0071686 268.5174 134.7258 14.58901211320370

Śledź DELTA 1 DEB w czasie rzeczywistym z AllMySat

Download on the App Store